カタログに戻る

STARLINK-31635

運用中通信VLEO
NORAD 59511·PAYLOAD·🇺🇸 United States

打ち上げ Apr 17, 2024 から Cape Canaveral Space Force Station

Loading…

次のパス (今後24時間)

TLE

最新Source: CelesTrak SupGP

元期: Sep 15, 2026, 03:00 UTC

1 59511C 24073A   26258.12548611  .00047298  00000+0  17130-2 0  2589
2 59511  43.0014 327.8186 0001649 261.3160  29.8211 15.27557406    15

AllMySatでSTARLINK-31635をリアルタイム追跡

Download on the App Store